CW5752 Weather Reports


time (UTC)temp
C
wind
direction
speed
KPH
gust
KPH
rain 1hr
cm
rain 24hr
cm
rain mn
cm
humidity
%
barometer
mb
20260831135021 27 211 3.2 9.7 0.00 0.00 0.00 75 1018.1
20260831134015 26 197 3.2 12.9 0.00 0.00 0.00 77 1018.0
20260831133035 26 196 0.0 11.3 0.00 0.00 0.00 79 1017.9
20260831132021 25 181 1.6 9.7 0.00 0.00 0.00 80 1017.9
20260831131040 25 184 0.0 9.7 0.00 0.00 0.00 82 1017.8
20260831130021 25 183 0.0 6.4 0.00 0.00 0.00 83 1017.5
20260831125020 24 184 0.0 8.0 0.00 0.00 0.00 84 1017.5
20260831124020 24 180 0.0 6.4 0.00 0.00 0.00 84 1017.4
20260831123015 23 183 0.0 6.4 0.00 0.00 0.00 86 1017.5
20260831122020 23 190 0.0 3.2 0.00 0.00 0.00 86 1017.4
20260831121021 23 0.0 1.6 0.00 0.00 0.00 87 1017.3
20260831120020 23 190 0.0 3.2 0.00 0.00 0.00 88 1017.2
20260831115021 23 190 0.0 3.2 0.00 0.00 0.00 88 1017.1
20260831114020 22 0.0 0.0 0.00 0.00 0.00 88 1017.1
20260831113020 22 0.0 0.0 0.00 0.00 0.00 88 1017.1
20260831112015 22 0.0 0.0 0.00 0.00 0.00 89 1017.1
20260831111020 22 0.0 0.0 0.00 0.00 0.00 88 1017.0
20260831110020 22 0.0 1.6 0.00 0.00 0.00 88 1017.0
20260831105020 22 0.0 3.2 0.00 0.00 0.00 88 1016.9
20260831104020 22 0.0 0.0 0.00 0.00 0.00 88 1016.9
20260831103020 22 0.0 1.6 0.00 0.00 0.00 88 1016.9
20260831102015 22 0.0 0.0 0.00 0.00 0.00 88 1016.9
20260831101015 22 0.0 0.0 0.00 0.00 0.00 88 1016.9
20260831100020 22 0.0 3.2 0.00 0.00 0.00 88 1016.9
20260831095020 22 0.0 1.6 0.00 0.00 0.00 88 1016.8
20260831094021 22 0.0 3.2 0.00 0.00 0.00 88 1016.8
20260831093038 22 190 0.0 3.2 0.00 0.00 0.00 89 1016.7
20260831092021 22 177 0.0 3.2 0.00 0.00 0.00 89 1016.6
20260831091015 21 0.0 0.0 0.00 0.00 0.00 91 1016.7
20260831090020 20 0.0 0.0 0.00 0.00 0.00 92 1016.6
20260831085020 20 0.0 0.0 0.00 0.00 0.00 92 1016.6
20260831084020 20 0.0 0.0 0.00 0.00 0.00 92 1016.6
20260831083020 19 0.0 0.0 0.00 0.00 0.00 92 1016.4
20260831082020 19 0.0 0.0 0.00 0.00 0.00 91 1016.3
20260831081015 19 0.0 0.0 0.00 0.00 0.00 91 1016.1
20260831080015 19 0.0 0.0 0.00 0.00 0.00 91 1016.2
20260831075020 19 0.0 0.0 0.00 0.00 0.00 91 1016.2
20260831074040 19 0.0 0.0 0.00 0.00 0.00 90 1016.1
20260831073020 20 0.0 0.0 0.00 0.00 0.00 91 1016.1
20260831072020 20 0.0 0.0 0.00 0.00 0.00 91 1016.2
20260831071020 20 0.0 0.0 0.00 0.00 0.00 92 1016.2
20260831070015 19 0.0 0.0 0.00 0.00 0.00 91 1016.3
20260831065021 20 0.0 0.0 0.00 0.00 0.00 89 1016.3
20260831064020 20 0.0 0.0 0.00 0.00 0.00 90 1016.3
20260831063020 20 0.0 0.0 0.00 0.00 0.00 89 1016.3
20260831062040 20 0.0 0.0 0.00 0.00 0.00 90 1016.4
20260831061040 20 0.0 0.0 0.00 0.00 0.00 90 1016.3
20260831060020 20 0.0 0.0 0.00 0.00 0.00 91 1016.4
20260831055015 20 0.0 0.0 0.00 0.00 0.00 89 1016.5
20260831054020 20 0.0 0.0 0.00 0.00 0.00 89 1016.5
20260831053100 20 0.0 0.0 0.00 0.00 0.00 89 1016.5
20260831052021 20 0.0 0.0 0.00 0.00 0.00 89 1016.5
20260831051040 20 0.0 0.0 0.00 0.00 0.00 89 1016.4
20260831050017 20 0.0 0.0 0.00 0.00 0.00 90 1016.4
20260831045021 20 0.0 0.0 0.00 0.00 0.00 89 1016.4
20260831044021 20 0.0 0.0 0.00 0.00 0.00 88 1016.5
20260831043016 20 0.0 0.0 0.00 0.00 0.00 88 1016.3
20260831042016 20 0.0 0.0 0.00 0.00 0.00 89 1016.3
20260831041021 20 0.0 0.0 0.00 0.00 0.00 87 1016.3
20260831040021 20 0.0 0.0 0.00 0.00 0.00 87 1016.3
20260831035021 20 0.0 0.0 0.00 0.00 0.00 87 1016.3
20260831034039 20 0.0 0.0 0.00 0.00 0.00 87 1016.2
20260831033041 20 0.0 0.0 0.00 0.00 0.00 86 1016.2
20260831032016 20 0.0 0.0 0.00 0.00 0.00 87 1016.2
20260831031021 20 0.0 0.0 0.00 0.00 0.00 86 1016.3
20260831030021 21 0.0 0.0 0.00 0.00 0.00 85 1016.3
20260831025021 21 0.0 0.0 0.00 0.00 0.00 85 1016.2
20260831024041 21 0.0 0.0 0.00 0.00 0.00 83 1016.3
20260831023021 21 0.0 0.0 0.00 0.00 0.00 83 1016.2
20260831022016 21 0.0 0.0 0.00 0.00 0.00 81 1016.2
20260831021016 22 0.0 0.0 0.00 0.00 0.00 80 1015.9
20260831020021 22 0.0 0.0 0.00 0.00 0.00 79 1015.8
20260831015021 22 0.0 0.0 0.00 0.00 0.00 78 1015.7
20260831014041 23 0.0 0.0 0.00 0.00 0.00 74 1015.6
20260831013021 23 0.0 0.0 0.00 0.00 0.00 74 1015.5
20260831012021 24 0.0 0.0 0.00 0.00 0.00 73 1015.4
20260831011016 24 0.0 0.0 0.00 0.00 0.00 74 1015.3
20260831010021 25 0.0 0.0 0.00 0.00 0.00 73 1015.3
20260831005041 25 0.0 0.0 0.00 0.00 0.00 70 1015.2
20260831004031 25 0.0 0.0 0.00 0.00 0.00 69 1015.3
20260831003021 26 0.0 0.0 0.00 0.00 0.00 66 1015.3
20260831002021 27 0.0 0.0 0.00 0.00 0.00 60 1015.3
20260831001021 28 0.0 0.0 0.00 0.00 0.00 58 1015.3
20260831000016 28 0.0 3.2 0.00 0.00 0.00 54 1015.3
20260830235041 30 0.0 1.6 0.00 0.00 0.00 53 1015.5
20260830234021 30 181 0.0 4.8 0.00 0.00 0.00 49 1015.5
20260830233021 30 194 0.0 4.8 0.00 0.00 0.00 48 1015.5
20260830232021 31 170 0.0 8.0 0.00 0.00 0.00 47 1015.6
20260830231021 31 174 1.6 9.7 0.00 0.00 0.00 45 1015.6
20260830230015 31 195 3.2 9.7 0.00 0.00 0.00 45 1015.7
20260830225016 32 189 3.2 11.3 0.00 0.00 0.00 44 1015.7
20260830224021 32 192 3.2 12.9 0.00 0.00 0.00 43 1015.8
20260830223021 32 192 1.6 17.7 0.00 0.00 0.00 42 1015.6
20260830222021 32 184 1.6 9.7 0.00 0.00 0.00 45 1015.5
20260830221021 32 174 1.6 12.9 0.00 0.00 0.00 42 1015.5
20260830220021 32 194 3.2 11.3 0.00 0.00 0.00 42 1015.6
20260830215015 32 193 0.0 3.2 0.00 0.00 0.00 43 1015.6
20260830214021 33 159 0.0 9.7 0.00 0.00 0.00 44 1015.6
20260830213041 33 180 1.6 16.1 0.00 0.00 0.00 42 1015.7
20260830212021 33 188 0.0 8.0 0.00 0.00 0.00 44 1015.8
20260830211021 32 179 1.6 12.9 0.00 0.00 0.00 44 1015.9
20260830210021 32 175 1.6 9.7 0.00 0.00 0.00 44 1015.9
20260830205016 32 166 0.0 4.8 0.00 0.00 0.00 45 1016.1
20260830204036 32 187 0.0 11.3 0.00 0.00 0.00 48 1016.1
20260830203041 33 203 1.6 12.9 0.00 0.00 0.00 44 1016.3
20260830202021 33 185 3.2 12.9 0.00 0.00 0.00 45 1016.3
20260830201021 32 183 1.6 9.7 0.00 0.00 0.00 44 1016.4
20260830200041 32 161 0.0 3.2 0.00 0.00 0.00 44 1016.4
20260830195021 33 157 0.0 9.7 0.00 0.00 0.00 39 1016.6
20260830194036 33 173 1.6 9.7 0.00 0.00 0.00 40 1016.7
20260830193021 33 201 3.2 11.3 0.00 0.00 0.00 41 1016.8
20260830192021 33 203 3.2 11.3 0.00 0.00 0.00 41 1017.0
20260830191020 33 196 3.2 12.9 0.00 0.00 0.00 41 1017.0
20260830190021 32 184 1.6 9.7 0.00 0.00 0.00 44 1017.0
20260830185021 33 229 3.2 9.7 0.00 0.00 0.00 45 1017.2
20260830184041 32 180 1.6 9.7 0.00 0.00 0.00 44 1017.2
20260830183016 32 185 3.2 11.3 0.00 0.00 0.00 40 1017.4
20260830182021 32 213 1.6 11.3 0.00 0.00 0.00 45 1017.4
20260830181041 32 207 3.2 11.3 0.00 0.00 0.00 42 1017.6
20260830180021 32 204 3.2 9.7 0.00 0.00 0.00 44 1017.5
20260830175021 32 196 6.4 20.9 0.00 0.00 0.00 44 1017.7
20260830174021 32 209 3.2 17.7 0.00 0.00 0.00 44 1017.8
20260830173036 32 218 4.8 14.5 0.00 0.00 0.00 44 1017.9
20260830172015 32 195 3.2 16.1 0.00 0.00 0.00 47 1018.1
20260830171021 31 197 6.4 12.9 0.00 0.00 0.00 46 1018.2
20260830170021 32 202 4.8 16.1 0.00 0.00 0.00 46 1018.1
20260830165021 31 209 3.2 16.1 0.00 0.00 0.00 49 1018.1
20260830164019 31 208 4.8 14.5 0.00 0.00 0.00 48 1018.2
20260830163020 31 220 4.8 12.9 0.00 0.00 0.00 49 1018.1
20260830162016 30 232 3.2 14.5 0.00 0.00 0.00 54 1018.2
20260830161020 30 192 0.0 6.4 0.00 0.00 0.00 57 1018.1
20260830160020 29 209 0.0 8.0 0.00 0.00 0.00 59 1018.2
20260830155020 28 151 0.0 3.2 0.00 0.00 0.00 58 1018.1
20260830154021 28 150 0.0 3.2 0.00 0.00 0.00 63 1018.1
20260830153022 28 150 0.0 4.8 0.00 0.00 0.00 66 1018.2
20260830152036 27 155 0.0 9.7 0.00 0.00 0.00 66 1018.1
20260830151035 27 180 0.0 6.4 0.00 0.00 0.00 66 1018.1
20260830150041 27 178 0.0 6.4 0.00 0.00 0.00 69 1018.1
20260830145021 26 193 1.6 8.0 0.00 0.00 0.00 69 1018.1
20260830144021 26 197 1.6 8.0 0.00 0.00 0.00 70 1018.0
20260830143021 26 192 4.8 11.3 0.00 0.00 0.00 71 1018.0
20260830142021 25 187 3.2 9.7 0.00 0.00 0.00 72 1018.0
20260830141015 25 183 1.6 8.0 0.00 0.00 0.00 73 1017.9
20260830140021 25 186 1.6 8.0 0.00 0.00 0.00 77 1018.0